Volver al catálogo

ATLAS 5 CENTAUR DEB

LostHEO
NORAD 46844·DEBRIS·🇺🇸 United States

Lanzado Oct 17, 2018 desde Cape Canaveral Space Force Station

Loading…

Próximos Pases (próximas 24 horas)

TLE

ObsoletoSource: Space-Track

Época: Sep 4, 2024, 14:57 UTC

1 46844U 18079CZ  24248.62346834 -.00000155  00000-0  00000-0 0  9999
2 46844  11.9624  41.0020 4714373 325.8542  11.1514  2.03162534  6191

Sigue ATLAS 5 CENTAUR DEB en tiempo real con AllMySat

Download on the App Store